STARLINK-33562, 62102

Orbit data source: Space-Track

STARLINK-33562, 62102 is a payload satellite owned by SpaceX/Seattle (US) in LEO that was launched on Mon, 25 Nov 2024 UTC via an FALCON 9 launch vehicle from the Air Force Eastern Test Range (AFETR). Payload-class satellites include a variety of spacecraft equipped with specific instruments for various scientific and technological missions. These include communications satellites like Starlink; space stations such as the ISS; scientific satellites like the Hubble; Earth observation satellites from companies like Planet Labs, Umbra, and HawkEye 360; GPS; miniature CubeSats for education and research; and military/defense satellites.

Loading next visibility...
Identifier
62102, 2024-220Q
Orbit
LEO
Country
Flag of USUS
Related business
Manufacturer
SpaceX/Seattle
Mission
Operational Commercial Communications
Bus & Motor
STARLINK V2MO, Unknown motor
Mass
530 kg wet, ~500 kg dry
Launch date (UTC)
2024-11-25 (2 years ago)
Launch vehicle
FALCON 9
Launch site
Air Force Eastern Test Range (AFETR)
Object type
Payload
Rocket body
Debris
Shape & HBR
Box + 2 Pan, 17.7 m
Radar Cross Section
36.964 m², Large (>1 m²)

Expand to show TLE details & history
Last TLE update: 1 day ago

TLE from 1 day ago
0 STARLINK-33562
1 62102U 24220Q   26170.50483315  .00013665  00000-0  50501-3 0  9991
2 62102  43.0033 350.4462 0002779 270.4254  89.6280 15.27590185 88595
Epoch: 2026-06-19T12:06Z
TLE epoch observation values (Epoch: 2026-06-19T12:06:57.584Z)
Latitude
0.00005°
Longitude
-99.02653°
Altitude
482.783 km
Speed
7.626 km/s
True Right ascension
23h 21m 47s
True Declination
0° 00' 00"
Sunlit
Object was in daylight at epoch
Visualization orbit readout
Latitude
Unknown
Longitude
Unknown
Altitude
Unknown
Speed
Unknown
Apparent Right ascension
Unknown
Apparent Declination
Unknown
Sunlit
N/A
Visualization observer readout
Local Sidereal Time
07:14:23
Azimuth
Unknown
Elevation
Unknown
Doppler factor
Unknown
Orbital elements
Apogee altitude
486.87 km
Perigee altitude
483.056 km
Semi-major axis
6,863.1 km
Eccentricity
0.00028
Inclination
43.0033°
RAAN
350.4462°
Arg. of periapsis
270.4254°
True anomaly
89.65984°
Mean anomaly
89.628°
Eccentric anomaly
89.64392°
Mean motion
3.81736 °/min
Orbital period
94.31 mins
BSTAR
0.00050501
Loading maneuver chart data...
Computing Atmospheric mass density...
Loading historical data...
Loading historical data...
Loading historical data...
Loading historical data...
Loading historical data...
Loading historical data...
Loading historical data...

Documentation

Showing up to 5 results
|